User: anonymous   Login
Location: Unspecified
(0.0000°N, 0.0000°E)
Time: 13:31:45
(UTC+00:00)
Language:

Cosmos 1589 - Orbit

View from above orbital plane
View from above orbital plane
View from above satellite
View from above satellite

Ground track
Ground track

The orbit data is extracted from the following two-line orbital elements,

1 15171U 84084A   18112.71462008 +.00000005 +00000-0 -36171-4 0  9998
2 15171 082.5999 181.0013 0007030 059.0512 055.2071 12.42200151528176
Epoch (UTC): 22 April 2018 17:09:03
Eccentricity: 0.0007030
inclination: 82.5999°
perigee height: 1492 km
apogee height: 1503 km
right ascension of ascending node: 181.0013°
argument of perigee: 59.0512°
revolutions per day: 12.42200151
mean anomaly at epoch: 55.2071°
orbit number at epoch: 52817

The dashed part of the orbit path shows where the satellite is in the earth's shadow,  

DLR